Time,TemperatureF,DewpointF,PressureIn,WindDirection,WindDirectionDegrees,WindSpeedMPH,WindSpeedGustMPH,Humidity,HourlyPrecipIn,Conditions,Clouds,dailyrainin,SoftwareType,DateUTC
2013-04-24 00:00:00,52.8,51.1,30.13,SSE,148,0.0,0.0,94,0.00,,,0.00,Wunderground v.1.15,2013-04-24 04:00:00,
2013-04-24 00:05:00,52.8,51.1,30.13,SSE,148,0.0,0.0,94,0.00,,,0.00,Wunderground v.1.15,2013-04-24 04:05:00,
2013-04-24 00:10:00,52.7,51.0,30.13,SSE,148,0.0,0.0,94,0.00,,,0.00,Wunderground v.1.15,2013-04-24 04:10:00,
2013-04-24 00:15:00,52.6,50.9,30.13,SSE,148,0.0,0.0,94,0.00,,,0.00,Wunderground v.1.15,2013-04-24 04:15:00,
2013-04-24 00:20:00,52.5,50.8,30.13,SSE,148,0.0,0.0,94,0.00,,,0.00,Wunderground v.1.15,2013-04-24 04:20:00,
2013-04-24 00:25:00,52.5,50.8,30.13,SSE,148,0.0,0.0,94,0.00,,,0.00,Wunderground v.1.15,2013-04-24 04:25:00,
2013-04-24 00:35:00,52.4,50.7,30.14,SSE,148,0.0,0.0,94,0.00,,,0.00,Wunderground v.1.15,2013-04-24 04:35:00,
2013-04-24 00:40:00,52.3,50.6,30.14,SSE,148,0.0,0.0,94,0.00,,,0.00,Wunderground v.1.15,2013-04-24 04:40:00,
2013-04-24 00:50:00,51.9,50.2,30.13,SSE,148,0.0,0.0,94,0.00,,,0.00,Wunderground v.1.15,2013-04-24 04:50:00,
2013-04-24 01:00:00,51.5,49.8,30.13,SSE,148,0.0,0.0,94,0.00,,,0.00,Wunderground v.1.15,2013-04-24 05:00:00,
2013-04-24 01:05:00,51.4,49.7,30.13,SSE,148,0.0,0.0,94,0.00,,,0.00,Wunderground v.1.15,2013-04-24 05:05:00,
2013-04-24 01:15:00,51.1,49.4,30.13,SSE,148,0.0,0.0,94,0.00,,,0.00,Wunderground v.1.15,2013-04-24 05:15:00,
2013-04-24 01:25:00,51.1,49.7,30.13,SSE,148,0.0,0.0,95,0.00,,,0.00,Wunderground v.1.15,2013-04-24 05:25:00,
2013-04-24 01:30:00,51.0,49.6,30.13,SSE,148,0.0,0.0,95,0.00,,,0.00,Wunderground v.1.15,2013-04-24 05:30:00,
2013-04-24 01:40:00,51.0,49.6,30.13,SSE,148,0.0,0.0,95,0.00,,,0.00,Wunderground v.1.15,2013-04-24 05:40:00,
2013-04-24 01:50:00,50.8,49.1,30.12,SSE,148,0.0,0.0,94,0.00,,,0.00,Wunderground v.1.15,2013-04-24 05:50:00,
2013-04-24 02:00:00,50.8,49.4,30.12,SSE,148,0.0,0.0,95,0.00,,,0.00,Wunderground v.1.15,2013-04-24 06:00:00,
2013-04-24 02:10:00,50.7,49.3,30.11,SSE,148,0.0,0.0,95,0.00,,,0.00,Wunderground v.1.15,2013-04-24 06:10:00,
2013-04-24 02:20:00,50.6,49.2,30.12,SSE,148,0.0,0.0,95,0.00,,,0.00,Wunderground v.1.15,2013-04-24 06:20:00,
2013-04-24 02:30:00,50.5,49.1,30.11,SSE,148,0.0,0.0,95,0.00,,,0.00,Wunderground v.1.15,2013-04-24 06:30:00,
2013-04-24 02:40:00,50.3,48.9,30.11,SSE,148,0.0,0.0,95,0.00,,,0.00,Wunderground v.1.15,2013-04-24 06:40:00,
2013-04-24 02:45:00,50.3,48.9,30.11,SSE,148,0.0,0.0,95,0.00,,,0.00,Wunderground v.1.15,2013-04-24 06:45:00,
2013-04-24 02:50:00,50.4,49.3,30.11,SSE,148,0.0,0.0,96,0.00,,,0.00,Wunderground v.1.15,2013-04-24 06:50:00,
2013-04-24 03:00:00,50.4,49.3,30.11,SSE,148,0.0,0.0,96,0.00,,,0.00,Wunderground v.1.15,2013-04-24 07:00:00,
2013-04-24 03:05:00,50.3,49.2,30.11,SSE,148,0.0,0.0,96,0.00,,,0.00,Wunderground v.1.15,2013-04-24 07:05:00,
2013-04-24 03:15:00,50.2,49.1,30.10,SSE,148,0.0,0.0,96,0.00,,,0.00,Wunderground v.1.15,2013-04-24 07:15:00,
2013-04-24 09:10:00,61.6,57.0,30.16,SSE,167,0.0,0.0,85,0.00,,,0.00,Wunderground v.1.15,2013-04-24 13:10:00,
2013-04-24 09:20:00,62.9,57.0,30.15,SSE,155,1.0,2.0,81,0.00,,,0.00,Wunderground v.1.15,2013-04-24 13:20:00,
2013-04-24 09:25:00,63.6,57.3,30.16,SE,128,1.0,2.0,80,0.00,,,0.00,Wunderground v.1.15,2013-04-24 13:25:00,
2013-04-24 09:35:00,64.6,57.9,30.16,ESE,113,2.0,2.0,79,0.00,,,0.00,Wunderground v.1.15,2013-04-24 13:35:00,
2013-04-24 09:40:00,65.0,58.0,30.16,SE,128,1.0,1.0,78,0.00,,,0.00,Wunderground v.1.15,2013-04-24 13:40:00,
2013-04-24 09:50:00,66.2,58.0,30.15,ESE,115,2.0,2.0,75,0.00,,,0.00,Wunderground v.1.15,2013-04-24 13:50:00,
2013-04-24 09:55:00,66.3,58.1,30.15,ESE,114,2.0,2.0,75,0.00,,,0.00,Wunderground v.1.15,2013-04-24 13:55:00,
2013-04-24 10:05:00,66.5,58.0,30.15,SSE,151,3.0,3.0,74,0.00,,,0.00,Wunderground v.1.15,2013-04-24 14:05:00,
2013-04-24 10:15:00,66.9,58.3,30.15,East,101,2.0,5.0,74,0.00,,,0.00,Wunderground v.1.15,2013-04-24 14:15:00,
2013-04-24 10:25:00,68.0,58.2,30.15,NE,55,2.0,4.0,71,0.00,,,0.00,Wunderground v.1.15,2013-04-24 14:25:00,
2013-04-24 10:30:00,68.3,58.5,30.14,ESE,103,2.0,3.0,71,0.00,,,0.00,Wunderground v.1.15,2013-04-24 14:30:00,
2013-04-24 10:40:00,68.5,58.7,30.14,SSW,208,3.0,3.0,71,0.00,,,0.00,Wunderground v.1.15,2013-04-24 14:40:00,
2013-04-24 10:45:00,68.7,58.5,30.14,SE,135,3.0,3.0,70,0.00,,,0.00,Wunderground v.1.15,2013-04-24 14:45:00,
2013-04-24 10:55:00,68.4,58.6,30.15,SE,130,4.0,4.0,71,0.00,,,0.00,Wunderground v.1.15,2013-04-24 14:55:00,
2013-04-24 11:05:00,69.1,58.1,30.15,ESE,106,3.0,7.0,68,0.00,,,0.00,Wunderground v.1.15,2013-04-24 15:05:00,
2013-04-24 11:10:00,69.1,58.5,30.15,South,171,3.0,3.0,69,0.00,,,0.00,Wunderground v.1.15,2013-04-24 15:10:00,
2013-04-24 11:20:00,69.3,58.3,30.14,SE,134,3.0,3.0,68,0.00,,,0.00,Wunderground v.1.15,2013-04-24 15:20:00,
2013-04-24 11:25:00,69.4,59.2,30.14,SSE,155,3.0,3.0,70,0.00,,,0.00,Wunderground v.1.15,2013-04-24 15:25:00,
2013-04-24 11:35:00,69.8,58.8,30.14,East,82,3.0,3.0,68,0.00,,,0.00,Wunderground v.1.15,2013-04-24 15:35:00,
2013-04-24 11:45:00,69.8,58.8,30.13,ESE,113,3.0,3.0,68,0.00,,,0.00,Wunderground v.1.15,2013-04-24 15:45:00,
2013-04-24 11:55:00,69.8,59.6,30.13,SE,127,4.0,7.0,70,0.00,,,0.00,Wunderground v.1.15,2013-04-24 15:55:00,
2013-04-24 12:00:00,70.3,58.8,30.12,ESE,123,4.0,5.0,67,0.00,,,0.00,Wunderground v.1.15,2013-04-24 16:00:00,
2013-04-24 12:10:00,69.5,59.3,30.12,South,177,5.0,5.0,70,0.00,,,0.00,Wunderground v.1.15,2013-04-24 16:10:00,
2013-04-24 12:20:00,70.4,59.3,30.12,ESE,123,4.0,4.0,68,0.00,,,0.00,Wunderground v.1.15,2013-04-24 16:20:00,
2013-04-24 12:30:00,71.1,60.4,30.11,SE,138,3.0,4.0,69,0.00,,,0.00,Wunderground v.1.15,2013-04-24 16:30:00,
2013-04-24 12:40:00,71.5,60.4,30.11,South,183,4.0,4.0,68,0.00,,,0.00,Wunderground v.1.15,2013-04-24 16:40:00,
2013-04-24 12:45:00,71.2,59.3,30.11,East,88,4.0,4.0,66,0.00,,,0.00,Wunderground v.1.15,2013-04-24 16:45:00,
2013-04-24 12:55:00,70.7,59.6,30.10,ESE,122,4.0,5.0,68,0.00,,,0.00,Wunderground v.1.15,2013-04-24 16:55:00,
2013-04-24 13:00:00,70.6,59.5,30.11,SE,126,4.0,4.0,68,0.00,,,0.00,Wunderground v.1.15,2013-04-24 17:00:00,
2013-04-24 13:10:00,70.6,59.5,30.10,SSE,163,5.0,8.0,68,0.00,,,0.00,Wunderground v.1.15,2013-04-24 17:10:00,
2013-04-24 13:20:00,70.8,60.1,30.10,East,82,5.0,5.0,69,0.00,,,0.00,Wunderground v.1.15,2013-04-24 17:20:00,
2013-04-24 13:25:00,70.8,60.5,30.10,South,182,5.0,5.0,70,0.00,,,0.00,Wunderground v.1.15,2013-04-24 17:25:00,
2013-04-24 13:35:00,71.2,60.5,30.10,SE,144,4.0,5.0,69,0.00,,,0.00,Wunderground v.1.15,2013-04-24 17:35:00,
2013-04-24 13:40:00,71.3,61.0,30.10,SE,124,5.0,5.0,70,0.00,,,0.00,Wunderground v.1.15,2013-04-24 17:40:00,
2013-04-24 13:50:00,71.7,60.2,30.10,South,173,4.0,4.0,67,0.00,,,0.00,Wunderground v.1.15,2013-04-24 17:50:00,
2013-04-24 14:00:00,71.6,60.5,30.10,ESE,105,4.0,4.0,68,0.00,,,0.00,Wunderground v.1.15,2013-04-24 18:00:00,
2013-04-24 14:10:00,71.9,61.2,30.11,South,182,5.0,7.0,69,0.00,,,0.00,Wunderground v.1.15,2013-04-24 18:10:00,
2013-04-24 14:20:00,71.4,60.7,30.09,SSE,164,6.0,6.0,69,0.00,,,0.00,Wunderground v.1.15,2013-04-24 18:20:00,
2013-04-24 14:25:00,72.0,61.3,30.09,SSE,150,5.0,6.0,69,0.00,,,0.00,Wunderground v.1.15,2013-04-24 18:25:00,
2013-04-24 14:35:00,72.4,62.1,30.09,ENE,63,5.0,9.0,70,0.00,,,0.00,Wunderground v.1.15,2013-04-24 18:35:00,
2013-04-24 14:40:00,72.3,61.6,30.10,South,183,4.0,7.0,69,0.00,,,0.00,Wunderground v.1.15,2013-04-24 18:40:00,
2013-04-24 14:50:00,72.3,61.1,30.09,ESE,105,5.0,5.0,68,0.00,,,0.00,Wunderground v.1.15,2013-04-24 18:50:00,
2013-04-24 15:00:00,72.4,61.2,30.09,ESE,117,5.0,5.0,68,0.00,,,0.00,Wunderground v.1.15,2013-04-24 19:00:00,
2013-04-24 15:10:00,72.7,61.9,30.08,ESE,113,5.0,7.0,69,0.00,,,0.00,Wunderground v.1.15,2013-04-24 19:10:00,
2013-04-24 15:15:00,72.6,61.8,30.08,SE,137,5.0,7.0,69,0.00,,,0.00,Wunderground v.1.15,2013-04-24 19:15:00,
2013-04-24 15:25:00,72.8,62.0,30.08,East,87,5.0,6.0,69,0.00,,,0.00,Wunderground v.1.15,2013-04-24 19:25:00,
2013-04-24 15:30:00,72.8,61.6,30.07,ESE,105,5.0,5.0,68,0.00,,,0.00,Wunderground v.1.15,2013-04-24 19:30:00,
2013-04-24 15:40:00,72.6,61.4,30.07,ESE,103,5.0,7.0,68,0.00,,,0.00,Wunderground v.1.15,2013-04-24 19:40:00,
2013-04-24 15:50:00,72.5,61.3,30.06,ESE,105,6.0,6.0,68,0.00,,,0.00,Wunderground v.1.15,2013-04-24 19:50:00,
2013-04-24 16:00:00,73.1,61.5,30.05,ESE,115,5.0,5.0,67,0.00,,,0.00,Wunderground v.1.15,2013-04-24 20:00:00,
2013-04-24 16:05:00,73.0,61.4,30.05,SSE,162,5.0,6.0,67,0.00,,,0.00,Wunderground v.1.15,2013-04-24 20:05:00,
2013-04-24 16:15:00,72.8,61.6,30.05,ESE,113,5.0,9.0,68,0.00,,,0.00,Wunderground v.1.15,2013-04-24 20:15:00,
2013-04-24 16:20:00,72.6,61.0,30.05,SSE,160,5.0,5.0,67,0.00,,,0.00,Wunderground v.1.15,2013-04-24 20:20:00,
2013-04-24 16:30:00,72.6,61.0,30.05,South,178,4.0,4.0,67,0.00,,,0.00,Wunderground v.1.15,2013-04-24 20:30:00,
2013-04-24 16:40:00,73.1,61.1,30.05,SW,222,4.0,8.0,66,0.00,,,0.00,Wunderground v.1.15,2013-04-24 20:40:00,
2013-04-24 16:45:00,73.3,61.3,30.04,East,85,4.0,8.0,66,0.00,,,0.00,Wunderground v.1.15,2013-04-24 20:45:00,
2013-04-24 16:55:00,72.9,60.9,30.04,ESE,123,5.0,7.0,66,0.00,,,0.00,Wunderground v.1.15,2013-04-24 20:55:00,
2013-04-24 17:05:00,73.2,60.7,30.04,SE,128,5.0,5.0,65,0.00,,,0.00,Wunderground v.1.15,2013-04-24 21:05:00,
2013-04-24 17:10:00,73.2,60.7,30.04,East,100,5.0,5.0,65,0.00,,,0.00,Wunderground v.1.15,2013-04-24 21:10:00,
2013-04-24 17:20:00,72.8,60.8,30.04,South,190,5.0,5.0,66,0.00,,,0.00,Wunderground v.1.15,2013-04-24 21:20:00,
2013-04-24 17:30:00,72.2,60.6,30.04,SE,132,4.0,4.0,67,0.00,,,0.00,Wunderground v.1.15,2013-04-24 21:30:00,
2013-04-24 17:40:00,71.7,60.6,30.04,ESE,113,4.0,4.0,68,0.00,,,0.00,Wunderground v.1.15,2013-04-24 21:40:00,
2013-04-24 17:45:00,71.3,61.0,30.03,SE,139,4.0,4.0,70,0.00,,,0.00,Wunderground v.1.15,2013-04-24 21:45:00,
2013-04-24 17:55:00,70.9,60.6,30.03,SSE,156,3.0,6.0,70,0.00,,,0.00,Wunderground v.1.15,2013-04-24 21:55:00,
2013-04-24 18:05:00,70.3,60.8,30.03,SSW,206,4.0,5.0,72,0.00,,,0.00,Wunderground v.1.15,2013-04-24 22:05:00,
2013-04-24 18:15:00,70.0,60.9,30.03,South,173,4.0,6.0,73,0.00,,,0.00,Wunderground v.1.15,2013-04-24 22:15:00,
2013-04-24 18:20:00,69.9,60.8,30.03,SE,134,4.0,5.0,73,0.00,,,0.00,Wunderground v.1.15,2013-04-24 22:20:00,
2013-04-24 18:30:00,69.7,61.0,30.03,SE,143,3.0,3.0,74,0.00,,,0.00,Wunderground v.1.15,2013-04-24 22:30:00,
2013-04-24 18:35:00,69.6,60.9,30.03,SE,142,4.0,7.0,74,0.00,,,0.00,Wunderground v.1.15,2013-04-24 22:35:00,
2013-04-24 18:45:00,69.4,60.8,30.02,SSE,155,4.0,7.0,74,0.00,,,0.00,Wunderground v.1.15,2013-04-24 22:45:00,
2013-04-24 18:55:00,68.9,60.6,30.03,SSE,161,4.0,4.0,75,0.00,,,0.00,Wunderground v.1.15,2013-04-24 22:55:00,
2013-04-24 19:00:00,68.6,60.4,30.02,SSE,147,3.0,4.0,75,0.00,,,0.00,Wunderground v.1.15,2013-04-24 23:00:00,
2013-04-24 19:10:00,68.1,59.9,30.03,SE,129,3.0,4.0,75,0.00,,,0.00,Wunderground v.1.15,2013-04-24 23:10:00,
2013-04-24 19:15:00,68.0,59.8,30.03,SE,136,3.0,4.0,75,0.00,,,0.00,Wunderground v.1.15,2013-04-24 23:15:00,
2013-04-24 19:25:00,67.7,59.5,30.02,SE,146,4.0,4.0,75,0.00,,,0.00,Wunderground v.1.15,2013-04-24 23:25:00,
2013-04-24 19:30:00,67.5,59.7,30.03,SE,141,3.0,4.0,76,0.00,,,0.00,Wunderground v.1.15,2013-04-24 23:30:00,
2013-04-24 19:40:00,67.2,59.7,30.03,ESE,123,3.0,4.0,77,0.00,,,0.00,Wunderground v.1.15,2013-04-24 23:40:00,
2013-04-24 19:50:00,66.9,59.8,30.03,ESE,121,3.0,3.0,78,0.00,,,0.00,Wunderground v.1.15,2013-04-24 23:50:00,
2013-04-24 19:55:00,66.8,59.7,30.04,SSW,205,2.0,3.0,78,0.00,,,0.00,Wunderground v.1.15,2013-04-24 23:55:00,
2013-04-24 20:05:00,66.5,59.8,30.03,South,189,3.0,4.0,79,0.00,,,0.00,Wunderground v.1.15,2013-04-25 00:05:00,
2013-04-24 20:10:00,66.5,59.8,30.03,SE,137,2.0,4.0,79,0.00,,,0.00,Wunderground v.1.15,2013-04-25 00:10:00,
2013-04-24 20:20:00,66.3,59.9,30.04,SSE,162,2.0,2.0,80,0.00,,,0.00,Wunderground v.1.15,2013-04-25 00:20:00,
2013-04-24 20:30:00,66.1,60.1,30.04,SSE,159,2.0,2.0,81,0.00,,,0.00,Wunderground v.1.15,2013-04-25 00:30:00,
2013-04-24 20:40:00,66.0,60.0,30.05,SW,217,2.0,2.0,81,0.00,,,0.00,Wunderground v.1.15,2013-04-25 00:40:00,
2013-04-24 20:45:00,65.9,60.2,30.05,South,183,2.0,2.0,82,0.00,,,0.00,Wunderground v.1.15,2013-04-25 00:45:00,
2013-04-24 20:55:00,65.9,60.2,30.06,South,177,2.0,2.0,82,0.00,,,0.00,Wunderground v.1.15,2013-04-25 00:55:00,
2013-04-24 21:00:00,65.8,60.2,30.06,South,181,1.0,1.0,82,0.00,,,0.00,Wunderground v.1.15,2013-04-25 01:00:00,
2013-04-24 21:10:00,65.7,59.7,30.06,South,180,1.0,2.0,81,0.00,,,0.00,Wunderground v.1.15,2013-04-25 01:10:00,
2013-04-24 21:20:00,65.5,59.5,30.06,SSW,207,1.0,1.0,81,0.00,,,0.00,Wunderground v.1.15,2013-04-25 01:20:00,
2013-04-24 21:25:00,65.4,59.4,30.06,SSW,198,1.0,1.0,81,0.00,,,0.00,Wunderground v.1.15,2013-04-25 01:25:00,
2013-04-24 21:35:00,65.4,59.4,30.07,South,188,1.0,1.0,81,0.00,,,0.00,Wunderground v.1.15,2013-04-25 01:35:00,
2013-04-24 21:45:00,65.3,59.3,30.07,SSW,194,1.0,3.0,81,0.00,,,0.00,Wunderground v.1.15,2013-04-25 01:45:00,
2013-04-24 21:50:00,65.3,59.3,30.07,SSW,213,1.0,1.0,81,0.00,,,0.00,Wunderground v.1.15,2013-04-25 01:50:00,
2013-04-24 22:00:00,65.2,59.6,30.07,SSW,205,1.0,1.0,82,0.00,,,0.00,Wunderground v.1.15,2013-04-25 02:00:00,
2013-04-24 22:05:00,65.2,59.6,30.07,SSW,196,1.0,1.0,82,0.00,,,0.00,Wunderground v.1.15,2013-04-25 02:05:00,
2013-04-24 22:15:00,65.1,59.5,30.07,SSE,148,1.0,1.0,82,0.00,,,0.00,Wunderground v.1.15,2013-04-25 02:15:00,
2013-04-24 22:25:00,65.0,59.7,30.07,SW,235,1.0,4.0,83,0.00,,,0.00,Wunderground v.1.15,2013-04-25 02:25:00,
2013-04-24 22:35:00,65.0,59.7,30.07,SSE,153,1.0,3.0,83,0.00,,,0.00,Wunderground v.1.15,2013-04-25 02:35:00,
2013-04-24 22:45:00,64.9,59.9,30.07,SSW,202,1.0,2.0,84,0.00,,,0.00,Wunderground v.1.15,2013-04-25 02:45:00,
2013-04-24 22:50:00,64.8,59.9,30.07,SSW,212,1.0,1.0,84,0.00,,,0.00,Wunderground v.1.15,2013-04-25 02:50:00,
2013-04-24 23:00:00,64.8,60.2,30.06,SSE,161,1.0,2.0,85,0.00,,,0.00,Wunderground v.1.15,2013-04-25 03:00:00,
2013-04-24 23:10:00,64.8,60.2,30.06,South,189,1.0,1.0,85,0.00,,,0.00,Wunderground v.1.15,2013-04-25 03:10:00,
2013-04-24 23:15:00,64.8,60.2,30.06,WSW,242,1.0,2.0,85,0.00,,,0.00,Wunderground v.1.15,2013-04-25 03:15:00,
2013-04-24 23:25:00,64.9,60.3,30.06,SSE,157,2.0,4.0,85,0.00,,,0.00,Wunderground v.1.15,2013-04-25 03:25:00,
2013-04-24 23:30:00,65.0,60.4,30.06,SSE,161,1.0,1.0,85,0.00,,,0.00,Wunderground v.1.15,2013-04-25 03:30:00,
2013-04-24 23:40:00,65.1,60.5,30.06,South,190,2.0,2.0,85,0.00,,,0.00,Wunderground v.1.15,2013-04-25 03:40:00,
2013-04-24 23:45:00,65.2,60.6,30.05,SSW,195,1.0,2.0,85,0.00,,,0.00,Wunderground v.1.15,2013-04-25 03:45:00,
2013-04-24 23:55:00,65.2,60.6,30.05,SSW,203,1.0,1.0,85,0.00,,,0.00,Wunderground v.1.15,2013-04-25 03:55:00,